Погода в Солгинском

Россия / Архангельская область     61°03′04″N   41°20′35″E
темп.,
°C
ветер,
м/с
пор.,
м/с
влажн.,
%
обл.,
%
осадки,
мм/ч
давл.,
гПа
погр.,
м
19 сентября, вс
вс1900:000с23965 0.0 102965
03:00−1с23965 0.0 103049
06:00−1с26965 0.0 1031133
09:00+4св377111 0.0 1031808
12:00+5св455891 0.0 10311210
15:00+6св455674 0.0 10311285
18:00+4св3763100 0.0 1031462
21:00+4св2768100 0.0 1031376
20 сентября, пн
пн2000:00+3св2777100 0.0 1032253
03:00+3всв277798 0.0 1032273
06:00+2всв3879100 0.0 1032410
09:00+4всв476365 0.0 10331226
12:00+6в4654100 0.0 10321431
15:00+8всв465273 0.0 10311425
18:00+4всв49705 0.0 1031449
21:000всв310885 0.0 1031233
21 сентября, вт
вт2100:000всв39945 0.0 1031197
03:00−1всв389663 0.0 1030188
06:00−1всв3109589 0.0 1030245
09:00+3в497455 0.0 1029470
12:00+7в5761100 0.0 1027890
15:00+8в4761100 0.0 1026980
18:00+5в3974100 0.0 1026450
21:00+3в3108887 0.0 1026253
22 сентября, ср
ср2200:00+1в399471 0.0 1026209
03:000всв39975 0.0 1026189
06:00−1всв310975 0.0 1026236
09:00+4в49750 0.0 1025391
12:00+8в57565 0.0 1024816
15:00+10в475260 0.0 10231004
18:00+6в3107077 0.0 1023354
21:00+4в4138996 0.0 1022404
23 сентября, чт
чт2300:00+4в31194100 0.0 1021378
03:00+5вюв3991100 0.1 1020442
06:00+5вюв3892100 0.0 1019374
09:00+6вюв3889100 0.0 1019362
12:00+9юв3685100 0.0 1018464
15:00+11юв3678100 0.0 1016671
18:00+8юв389583 0.0 1016307
21:00+8юв3995100 0.1 1015380